Clarksburg, WV

6:13 AM EDT on June 28, 2017 (GMT -0400)
Benedum

Weather History for KCKB - January, 2014

Change the Weather History Date:

Sunday, January 19, 2014

  Actual Average Record
Temperature  
Mean Temperature 28 °F -  
Max Temperature 34 °F 37 °F 70 °F (1929)
Min Temperature 21 °F 19 °F -9 °F (1940)
Degree Days  
Heating Degree Days 38    
Moisture  
Dew Point 23 °F    
Average Humidity 79    
Maximum Humidity 93    
Minimum Humidity 56    
Precipitation  
Precipitation 0.06 in - - ()
Sea Level Pressure  
Sea Level Pressure 29.81 in    
Wind  
Wind Speed 6 mph (SW)    
Max Wind Speed 20 mph    
Max Gust Speed 26 mph    
Visibility 5 miles    
Events Rain , Snow    
Averages and records for this station are not official NWS values.
T = Trace of Precipitation, MM = Missing Value Source: NWS Daily Summary

Daily Weather History Graph

Daily Weather History Graph

Search for Another Location

Airport or City:

Trip Planner

Search our weather history database for the weather conditions in past years. The results will help you decide how hot, cold, wet, or windy it might be!

Date:

Astronomy

Jan. 19, 2014 Rise Set
Actual Time 7:37 AM EST 5:26 PM EST
Civil Twilight 7:08 AM EST 5:55 PM EST
Nautical Twilight 6:35 AM EST 6:28 PM EST
Astronomical Twilight 6:03 AM EST 7:00 PM EST
Moon 9:01 PM EST (1/19) 9:07 AM EST (1/19)
Length of Visible Light 10h 47m
Length of Day
9h 49m
Waning Gibbous, 89% of the Moon is Illuminated
Jan 19
Waning Gibbous
Jan 24
Last Quarter
Jan 30
New
Feb 6
First Quarter
Feb 14
Full

Hourly Weather History & Observations

Time (EST) Temp. Windchill Dew Point Humidity Pressure Visibility Wind Dir Wind Speed Gust Speed Precip Events Conditions
12:33 AM 21.0 °F - 18.0 °F 88% 29.81 in 2.0 mi Calm Calm - 0.01 in Snow Light Snow
12:42 AM 21.0 °F - 18.0 °F 88% 29.81 in 1.5 mi Calm Calm - 0.01 in Snow Light Snow
12:53 AM 21.0 °F - 18.0 °F 88% 29.84 in 1.5 mi Calm Calm - 0.02 in Snow Light Snow
1:10 AM 21.0 °F - 18.0 °F 88% 29.79 in 2.0 mi Calm Calm - 0.00 in Snow Light Snow
1:21 AM 21.0 °F - 18.0 °F 88% 29.78 in 5.0 mi Calm Calm - 0.00 in Snow Light Snow
1:53 AM 21.9 °F - 19.0 °F 89% 29.80 in 10.0 mi Calm Calm - 0.00 in   Overcast
2:53 AM 23.0 °F - 19.9 °F 88% 29.80 in 5.0 mi Calm Calm - N/A   Overcast
3:53 AM 25.0 °F - 21.0 °F 85% 29.79 in 7.0 mi Calm Calm - 0.00 in Snow Light Snow
4:53 AM 28.9 °F 21.9 °F 21.9 °F 75% 29.78 in 10.0 mi SW 6.9 mph - 0.00 in   Overcast
5:50 AM 30.2 °F 24.3 °F 23.0 °F 75% 29.75 in 10.0 mi SW 5.8 mph - 0.00 in   Overcast
5:53 AM 30.0 °F 23.2 °F 21.9 °F 72% 29.78 in 10.0 mi SW 6.9 mph - 0.00 in   Overcast
6:04 AM 30.0 °F 23.2 °F 21.9 °F 72% 29.75 in 9.0 mi SW 6.9 mph - 0.00 in Snow Light Snow
6:13 AM 30.0 °F 22.4 °F 23.0 °F 75% 29.75 in 4.0 mi SW 8.1 mph - 0.00 in Snow Light Snow
6:30 AM 30.0 °F 20.5 °F 23.0 °F 75% 29.76 in 1.8 mi SW 11.5 mph - 0.00 in Snow Light Snow
6:53 AM 28.9 °F 21.1 °F 25.0 °F 85% 29.80 in 2.0 mi SW 8.1 mph - 0.01 in Snow Light Snow
6:58 AM 28.9 °F 21.1 °F 25.0 °F 85% 29.76 in 3.0 mi SW 8.1 mph - 0.00 in Snow Light Snow
7:09 AM 28.9 °F 21.1 °F 25.0 °F 85% 29.76 in 2.5 mi SW 8.1 mph - 0.00 in Snow Light Snow
7:20 AM 28.9 °F 19.8 °F 25.0 °F 85% 29.76 in 0.8 mi SW 10.4 mph - 0.00 in Snow Light Snow
7:28 AM 28.9 °F 21.9 °F 26.1 °F 89% 29.77 in 2.0 mi SW 6.9 mph - 0.01 in Snow Light Snow
7:37 AM 28.9 °F 22.8 °F 26.1 °F 89% 29.77 in 1.5 mi SW 5.8 mph - 0.01 in Snow Light Snow
7:51 AM 28.4 °F 22.2 °F 26.6 °F 93% 29.78 in 2.5 mi SW 5.8 mph - 0.01 in Snow Light Snow
7:53 AM 28.9 °F 22.8 °F 26.1 °F 89% 29.81 in 2.5 mi SW 5.8 mph - 0.01 in Snow Light Snow
7:55 AM 28.9 °F 21.9 °F 26.1 °F 89% 29.78 in 2.5 mi SW 6.9 mph - 0.00 in Snow Light Snow
8:12 AM 28.9 °F 21.1 °F 26.1 °F 89% 29.79 in 3.0 mi SW 8.1 mph - 0.00 in Snow Light Snow
8:42 AM 28.9 °F 18.6 °F 26.1 °F 89% 29.81 in 2.5 mi WSW 12.7 mph - 0.00 in Snow Light Snow
8:51 AM 28.4 °F 19.7 °F 26.6 °F 93% 29.81 in 1.0 mi WSW 9.2 mph - 0.01 in Snow Light Snow
8:53 AM 28.9 °F 19.2 °F 26.1 °F 89% 29.84 in 0.8 mi WSW 11.5 mph - 0.01 in Snow Light Snow
9:05 AM 28.9 °F 20.4 °F 26.1 °F 89% 29.81 in 1.0 mi WSW 9.2 mph - 0.01 in Snow Light Snow
9:12 AM 28.9 °F 20.4 °F 26.1 °F 89% 29.81 in 2.0 mi WSW 9.2 mph - 0.01 in Snow Light Snow
9:20 AM 28.9 °F 21.1 °F 26.1 °F 89% 29.82 in 3.0 mi WSW 8.1 mph - 0.01 in Snow Light Snow
9:53 AM 28.9 °F 21.1 °F 26.1 °F 89% 29.87 in 2.0 mi West 8.1 mph - 0.01 in Snow Light Snow
10:18 AM 28.9 °F 19.8 °F 26.1 °F 89% 29.85 in 2.0 mi WSW 10.4 mph - 0.00 in Rain Light Freezing Rain
10:45 AM 28.9 °F 19.2 °F 25.0 °F 85% 29.86 in 2.0 mi West 11.5 mph 21.9 mph 0.00 in Snow Light Snow
10:53 AM 28.9 °F 19.8 °F 25.0 °F 85% 29.89 in 2.0 mi West 10.4 mph 21.9 mph 0.00 in Snow Light Snow
11:00 AM 28.9 °F 19.8 °F 25.0 °F 85% 29.87 in 3.0 mi West 10.4 mph 20.7 mph 0.00 in Snow Light Snow
11:34 AM 30.0 °F 21.1 °F 24.1 °F 79% 29.86 in 9.0 mi WSW 10.4 mph 18.4 mph 0.00 in   Overcast
11:53 AM 30.0 °F 22.4 °F 24.1 °F 79% 29.88 in 10.0 mi WSW 8.1 mph - 0.00 in   Overcast
12:53 PM 30.9 °F 20.2 °F 23.0 °F 72% 29.86 in 10.0 mi WSW 15.0 mph 25.3 mph N/A   Overcast
1:53 PM 32.0 °F 20.1 °F 23.0 °F 69% 29.84 in 10.0 mi WSW 19.6 mph 26.5 mph N/A   Mostly Cloudy
2:41 PM 33.1 °F 22.6 °F 21.9 °F 64% 29.82 in 10.0 mi West 16.1 mph 25.3 mph N/A   Scattered Clouds
2:53 PM 33.1 °F 23.0 °F 21.9 °F 64% 29.84 in 10.0 mi WSW 15.0 mph - N/A   Partly Cloudy
3:53 PM 34.0 °F 24.6 °F 21.0 °F 59% 29.84 in 10.0 mi WSW 13.8 mph - N/A   Clear
4:53 PM 34.0 °F 26.0 °F 21.9 °F 61% 29.83 in 10.0 mi SW 10.4 mph - N/A   Clear
5:53 PM 32.0 °F 23.0 °F 21.0 °F 64% 29.83 in 10.0 mi SSW 11.5 mph - N/A   Clear
6:53 PM 32.0 °F 23.6 °F 21.0 °F 64% 29.83 in 10.0 mi SW 10.4 mph - N/A   Clear
7:53 PM 32.0 °F 24.8 °F 21.0 °F 64% 29.82 in 10.0 mi SSW 8.1 mph - N/A   Clear
8:53 PM 33.1 °F 23.4 °F 21.0 °F 61% 29.83 in 10.0 mi SW 13.8 mph - N/A   Clear
9:53 PM 33.1 °F 24.4 °F 21.0 °F 61% 29.81 in 10.0 mi SSW 11.5 mph - N/A   Clear
10:53 PM 34.0 °F 26.6 °F 21.0 °F 59% 29.79 in 10.0 mi SSW 9.2 mph - N/A   Clear
11:53 PM 34.0 °F 26.0 °F 19.9 °F 56% 29.79 in 10.0 mi SW 10.4 mph - N/A   Clear